Content
SEND FEEDBACK

Daily
Averages
Monthly
Summary
United States of America

ASATDAS, GUAM


Home > North America > United States > Guam
Elevation: 186 meters     Latitude: 13 35N     Longitude: 144 56E

WEATHER
 
SELECT A DAY
Number of Records: 213,081;   Date Range: 1/1/95 - 9/30/14
 
SHARE

PRINT THIS DATA

[ ← Previous Day ]
WEATHER ALMANAC - 19 JANUARY, 2013
[ Next Day → ]
[ °F ]   °C
Weather ElementAverageHighLow
Temperature26.9 °C30.6 °C (12:54 pm)24.4 °C (6:54 am)
Dewpoint22.6 °C24 °C (6:33 pm)21.1 °C (10:54 am)
Humidity78.1 %94 % (6:50 pm)59 % (12:54 pm)
Barometer1011.9 hPa1013.9 hPa (8:54 am)1009.5 hPa (2:54 pm)
Wind Speed22.2 km/h33.3 km/h (12:54 pm)
Wind Gust40.7 km/h (11:54 am)
Weather ElementAverage
Visibility15.8 km
Wind DirectionNE (44.6 °)

Weather ElementTotal
Precipitation---
Cooling Degree Days9.2 (Base 18.3)
Growing Degree Days17.5 (Base 10)
Averaged from 28 records on 19 January, 2013
WEATHER CONDITIONS BREAKOUT
WIND DIRECTION BREAKOUT
WEATHER BY HOUR - 19 JANUARY, 2013
[ °F ]   °C
Local TimeTemperatureDewpointHumidityBarometerVisibilityWind DirectionWind SpeedGust SpeedPrecipitationEventsConditions
1:54 AM25 °C21.7 °C82 %1011.9 hPa16.1 kmNNE (30°)9.3 km/hOvercast
2:54 AM25 °C22.2 °C84 %1011.5 hPa16.1 kmNNE (30°)13 km/hClear
3:54 AM25 °C22.2 °C84 %1011.2 hPa16.1 kmNNE (30°)14.8 km/hPartly Cloudy
4:54 AM25.6 °C22.8 °C84 %1011.9 hPa16.1 kmNE (50°)20.4 km/h0 mmRainLight Rain
5:54 AM25 °C22.2 °C84 %1011.9 hPa16.1 kmNE (50°)18.5 km/h0 mmClear
6:54 AM24.4 °C22.2 °C87 %1012.9 hPa16.1 kmNE (40°)13 km/hClear
7:54 AM26.7 °C22.2 °C76 %1013.2 hPa16.1 kmNE (40°)13 km/hClear
8:54 AM28.3 °C22.2 °C69 %1013.9 hPa16.1 kmNE (50°)29.6 km/hClear
9:54 AM28.9 °C21.7 °C65 %1013.5 hPa16.1 kmNE (50°)27.8 km/hPartly Cloudy
10:54 AM29.4 °C21.1 °C61 %1012.9 hPa16.1 kmNE (50°)29.6 km/hPartly Cloudy
11:54 AM30 °C21.7 °C61 %1011.9 hPa16.1 kmENE (60°)25.9 km/h40.7 km/hPartly Cloudy
12:54 PM30.6 °C21.7 °C59 %1010.8 hPa16.1 kmNE (40°)33.3 km/hMostly Cloudy
1:54 PM30 °C21.7 °C61 %1010.2 hPa16.1 kmNE (40°)31.5 km/h40.7 km/hMostly Cloudy
2:54 PM29.4 °C21.7 °C63 %1009.5 hPa16.1 kmNE (40°)33.3 km/h40.7 km/hMostly Cloudy
3:41 PM29 °C22 °C66 %1010.5 hPa16.1 kmNNE (30°)29.6 km/hOvercast
3:54 PM29.4 °C22.2 °C65 %1010.2 hPa16.1 kmNNE (20°)27.8 km/hMostly Cloudy
4:01 PM29 °C22 °C66 %1010.8 hPa16.1 kmNNE (30°)33.3 km/hScattered Clouds
4:54 PM28.3 °C22.8 °C72 %1010.5 hPa16.1 kmNE (50°)25.9 km/hMostly Cloudy
5:54 PM26.7 °C22.8 °C79 %1011.5 hPa16.1 kmNE (40°)29.6 km/hScattered Clouds
6:33 PM26 °C24 °C89 %1012.5 hPa8 kmENE (60°)27.8 km/h37 km/h0 mmRainLight Rain
6:44 PM26 °C24 °C89 %1012.5 hPa12.9 kmENE (60°)20.4 km/h0 mmOvercast
6:50 PM25 °C24 °C94 %1012.5 hPa16.1 kmNE (50°)18.5 km/h0 mmOvercast
6:54 PM25 °C23.9 °C94 %1011.9 hPa16.1 kmNE (50°)14.8 km/h0 mmMostly Cloudy
7:54 PM25 °C23.9 °C94 %1012.9 hPa16.1 kmNE (40°)9.3 km/hScattered Clouds
8:54 PM25.6 °C23.3 °C87 %1012.9 hPa16.1 kmNE (40°)16.7 km/hScattered Clouds
9:54 PM25 °C23.9 °C94 %1012.9 hPa16.1 kmNE (50°)14.8 km/h0 mmScattered Clouds
10:54 PM25.6 °C23.9 °C90 %1012.9 hPa16.1 kmENE (60°)20.4 km/hScattered Clouds
11:54 PM25.6 °C23.3 °C87 %1012.5 hPa16.1 kmENE (70°)20.4 km/hScattered Clouds
Hourly data recorded from PGUM, located 0 kilometers away from Asatdas, Guam







STORIES FROM OUR PARTNERS